FW2924 Weather Reports


Display with metric or nautical units.
time (UTC)temp
F
wind
direction
speed
MPH
gust
MPH
rain 1hr
in
rain 24hr
in
rain mn
in
humidity
%
barometer
mb
20260506133551 71 190 1.0 3.0 0.00 0.48 0.44 63 1003.3
20260506132548 67 311 2.0 4.0 0.00 0.48 0.44 63 1003.2
20260506131605 68 253 2.0 4.0 0.00 0.48 0.44 62 1003.3
20260506130601 69 215 1.0 3.0 0.00 0.48 0.44 63 1003.3
20260506125538 69 241 1.0 3.0 0.00 0.48 0.44 64 1003.5
20260506124533 67 238 1.0 2.0 0.00 0.48 0.44 64 1003.4
20260506123529 66 289 2.0 4.0 0.00 0.48 0.44 63 1003.3
20260506122526 69 282 2.0 4.0 0.00 0.48 0.44 60 1003.4
20260506121522 71 315 1.0 3.0 0.00 0.48 0.44 61 1003.4
20260506120519 68 315 2.0 3.0 0.00 0.48 0.44 67 1003.3
20260506115516 65 315 2.0 4.0 0.00 0.48 0.44 70 1003.3
20260506114613 63 312 2.0 4.0 0.00 0.48 0.44 72 1003.4
20260506113631 63 275 2.0 4.0 0.00 0.48 0.44 72 1003.3
20260506112606 63 270 2.0 3.0 0.00 0.48 0.44 71 1003.4
20260506111603 64 261 2.0 4.0 0.00 0.48 0.44 65 1003.6
20260506110559 66 267 2.0 4.0 0.00 0.48 0.44 65 1003.6
20260506105558 67 277 2.0 4.0 0.00 0.48 0.44 66 1003.7
20260506104553 66 150 0.0 2.0 0.00 0.48 0.44 71 1003.6
20260506103543 64 141 1.0 3.0 0.00 0.48 0.44 70 1003.8
20260506102541 64 270 1.0 2.0 0.00 0.48 0.44 69 1003.7
20260506101532 66 235 1.0 3.0 0.00 0.48 0.44 67 1003.5
20260506100531 68 270 1.0 2.0 0.00 0.48 0.44 71 1003.5
20260506095600 65 0.0 2.0 0.00 0.48 0.44 79 1003.3
20260506094518 60 0.0 0.0 0.00 0.48 0.44 82 1003.2
20260506093608 59 0.0 1.0 0.00 0.48 0.44 81 1003.3
20260506092604 59 270 0.0 2.0 0.00 0.48 0.44 81 1003.3
20260506091556 60 231 1.0 2.0 0.00 0.48 0.44 81 1003.2
20260506090553 61 0.0 0.0 0.00 0.48 0.44 84 1003.1
20260506085543 60 0.0 1.0 0.00 0.48 0.44 85 1003.1
20260506084601 60 0.0 1.0 0.00 0.48 0.44 90 1002.8
20260506083530 59 0.0 1.0 0.00 0.48 0.44 93 1002.8
20260506082527 58 0.0 0.0 0.00 0.48 0.44 94 1002.8
20260506081539 58 135 0.0 2.0 0.00 0.48 0.44 96 1002.8
20260506080615 58 0.0 0.0 0.00 0.48 0.44 97 1002.7
20260506072550 56 0.0 2.0 0.00 0.48 0.44 97 1002.5
20260506071543 55 0.0 0.0 0.00 0.48 0.44 97 1002.5
20260506070538 55 259 0.0 2.0 0.00 0.48 0.44 96 1002.6
20260506061606 55 266 1.0 3.0 0.00 0.48 0.44 98 1002.6
20260506060556 55 315 1.0 2.0 0.00 0.48 0.44 98 1002.5
20260506050521 55 283 0.0 2.0 0.05 0.50 0.44 99 1001.7
20260506044628 55 0.0 0.0 0.06 0.50 0.43 99 1001.6
20260506043606 55 148 1.0 2.0 0.06 0.50 0.43 99 1001.6
20260506042616 55 0.0 2.0 0.05 0.47 0.40 99 1001.8
20260506041552 55 0.0 2.0 0.05 0.46 0.39 99 1001.5
20260506040544 55 0.0 0.0 0.06 0.46 0.39 99 1001.5
20260506035543 55 0.0 0.0 0.07 0.45 0.38 99 1001.4
20260506034532 55 0.0 0.0 0.06 0.44 0.37 99 1001.5
20260506033529 55 0.0 2.0 0.06 0.44 0.37 99 1001.6
20260506032540 55 0.0 0.0 0.06 0.43 0.35 98 1001.6
20260506031538 55 0.0 1.0 0.05 0.41 0.34 98 1001.6
20260506030608 55 0.0 0.0 0.07 0.40 0.33 98 1001.7
20260506025626 55 0.0 1.0 0.07 0.39 0.31 98 1001.7
20260506024556 56 0.0 1.0 0.09 0.39 0.31 98 1001.7
20260506023552 56 0.0 2.0 0.12 0.39 0.31 97 1001.8
20260506022543 56 135 0.0 2.0 0.12 0.38 0.30 97 1001.8
20260506021540 56 135 0.0 2.0 0.13 0.38 0.30 97 1002.0
20260506020531 56 0.0 0.0 0.11 0.34 0.26 97 1002.1
20260506015529 56 225 0.0 2.0 0.09 0.32 0.24 96 1002.1
20260506014520 56 0.0 2.0 0.07 0.30 0.21 96 1002.2
20260506013516 56 0.0 1.0 0.05 0.27 0.19 96 1002.2
20260506012606 56 0.0 1.0 0.04 0.26 0.18 96 1002.3
20260506011603 56 0.0 1.0 0.04 0.25 0.17 96 1002.4
20260506010554 56 0.0 1.0 0.04 0.24 0.15 95 1002.4
20260506005553 56 135 0.0 2.0 0.02 0.22 0.14 95 1002.5
20260506004544 56 0.0 1.0 0.04 0.22 0.14 95 1002.7
20260506003540 56 0.0 1.0 0.04 0.22 0.14 95 1002.8
20260506002532 56 120 0.0 2.0 0.05 0.22 0.14 95 1002.9
20260506001528 56 154 0.0 2.0 0.04 0.21 0.13 95 1002.9
20260506000518 56 0.0 1.0 0.04 0.20 0.12 95 1003.0
20260505235615 57 146 0.0 2.0 0.05 0.20 0.12 95 1003.1
20260505234606 57 22 0.0 3.0 0.05 0.19 0.11 95 1003.2
20260505233605 57 0.0 1.0 0.06 0.19 0.11 95 1003.2
20260505232554 57 237 0.0 2.0 0.06 0.18 0.09 94 1003.2
20260505231612 58 0.0 0.0 0.06 0.18 0.09 94 1003.2
20260505230604 58 0.0 0.0 0.08 0.17 0.08 93 1003.1
20260505225540 58 0.0 1.0 0.07 0.15 0.07 93 1003.2
20260505224530 58 0.0 1.0 0.07 0.14 0.06 92 1003.4
20260505223527 58 0.0 1.0 0.07 0.13 0.05 92 1003.5
20260505222519 58 0.0 1.0 0.06 0.12 0.04 91 1003.6
20260505221614 58 0.0 1.0 0.07 0.12 0.04 90 1003.8
20260505220605 58 0.0 0.0 0.04 0.08 0.00 90 1003.9
20260505215557 58 0.0 0.0 0.05 0.08 0.08 89 1004.0
20260505214553 59 0.0 0.0 0.04 0.07 0.07 88 1004.3
20260505213544 59 0.0 0.0 0.02 0.06 0.06 87 1004.4
20260505212540 59 0.0 0.0 0.02 0.06 0.06 87 1004.5
20260505211530 59 0.0 0.0 0.01 0.05 0.05 86 1004.4
20260505210529 59 0.0 0.0 0.01 0.05 0.05 85 1004.4
20260505205518 60 315 0.0 2.0 0.00 0.04 0.04 84 1004.4
20260505204616 60 0.0 0.0 0.00 0.04 0.04 83 1004.6
20260505203606 60 0.0 1.0 0.00 0.04 0.04 82 1004.5
20260505202623 60 292 1.0 3.0 0.00 0.04 0.04 82 1004.3
20260505201556 61 281 3.0 6.0 0.00 0.05 0.04 82 1004.0
20260505200553 61 315 2.0 4.0 0.00 0.05 0.04 81 1003.9
20260505195542 61 288 2.0 3.0 0.00 0.05 0.04 81 1003.8
20260505194539 61 248 3.0 6.0 0.00 0.05 0.04 80 1003.9
20260505193530 61 194 2.0 4.0 0.00 0.05 0.04 80 1004.0
20260505192528 61 187 1.0 3.0 0.00 0.05 0.04 79 1004.1
20260505191518 62 242 1.0 3.0 0.00 0.05 0.04 78 1004.1
20260505190615 62 276 2.0 4.0 0.00 0.05 0.04 77 1004.1
20260505185606 62 301 2.0 8.0 0.00 0.05 0.04 76 1004.1
20260505184602 63 304 2.0 4.0 0.00 0.05 0.04 75 1004.2
20260505183555 63 248 1.0 4.0 0.00 0.05 0.04 74 1004.3
20260505182550 63 253 1.0 4.0 0.00 0.05 0.04 73 1004.4
20260505181541 64 285 2.0 4.0 0.00 0.05 0.04 70 1004.4
20260505180554 64 315 2.0 4.0 0.00 0.05 0.04 70 1004.5
20260505175529 65 320 2.0 4.0 0.00 0.05 0.04 70 1004.6
20260505174520 65 304 2.0 4.0 0.00 0.05 0.04 66 1004.5
20260505173517 66 264 1.0 2.0 0.00 0.05 0.04 62 1004.6
20260505172632 67 0.0 1.0 0.00 0.05 0.04 61 1004.5
20260505171606 67 0.0 2.0 0.00 0.05 0.04 61 1004.5
20260505170557 67 0.0 1.0 0.00 0.05 0.04 61 1004.6
20260505165613 68 135 0.0 2.0 0.00 0.05 0.04 61 1004.6
20260505164545 68 195 0.0 2.0 0.00 0.05 0.04 60 1004.7
20260505163542 69 130 1.0 2.0 0.00 0.05 0.04 60 1004.7
20260505162532 69 180 0.0 2.0 0.00 0.05 0.04 61 1004.8
20260505161529 70 135 0.0 2.0 0.00 0.05 0.04 61 1004.7
20260505160520 69 0 1.0 2.0 0.00 0.05 0.04 61 1004.7
20260505152557 71 225 0.0 3.0 0.00 0.05 0.04 60 1005.3
20260505151554 72 162 1.0 2.0 0.00 0.05 0.04 55 1005.3
20260505150546 73 118 0.0 3.0 0.00 0.05 0.04 55 1005.5
20260505140608 67 0.0 1.0 0.00 0.05 0.04 61 1005.8